Torna al catalogo

COSMOS 2251 DEB

AttivoLEO
NORAD 34626·DEBRIS·🇷🇺 Russia

Lanciato Jun 16, 1993 da Plesetsk Cosmodrome

Loading…

Prossimi Passaggi (prossime 24 ore)

TLE

AggiornatoSource: Space-Track

Epoca: Sep 14, 2026, 03:23 UTC

1 34626U 93036WX  26257.14132742  .00002774  00000-0  41640-3 0  9996
2 34626  74.0462 147.1026 0028140 170.5776 339.9210 14.74807601932015

Traccia COSMOS 2251 DEB in tempo reale con AllMySat

Download on the App Store